Weather History for Tehachapi, CA

Change the Weather History Date:

Monday, March 11, 2013

  Actual Average Record
Temperature  
Mean Temperature 46 °F -  
Max Temperature 66 °F 54 °F 66 °F (2013)
Min Temperature 26 °F 35 °F 26 °F (2013)
Degree Days  
Heating Degree Days 19    
Moisture  
Dew Point 23 °F    
Average Humidity 57    
Maximum Humidity 93    
Minimum Humidity 11    
Precipitation  
Precipitation 0.00 in - - ()
Sea Level Pressure  
Sea Level Pressure 30.24 in    
Wind  
Wind Speed 5 mph (ESE)    
Max Wind Speed 14 mph    
Max Gust Speed 18 mph    
Visibility 10 miles    
Events      
Averages and records for this station are not official NWS values.
T = Trace of Precipitation, MM = Missing Value Source: NWS Daily Summary

Daily Weather History Graph

Daily Weather History Graph

Search for Another Location

Airport:

Trip Planner

Search our weather history database for the weather conditions in past years. The results will help you decide how hot, cold, wet, or windy it might be!

Date:

Astronomy

Mar. 11, 2013 Rise Set
Actual Time 7:09 AM PDT 6:58 PM PDT
Civil Twilight 6:44 AM PDT 7:23 PM PDT
Nautical Twilight 6:14 AM PDT 7:53 PM PDT
Astronomical Twilight 5:45 AM PDT 8:22 PM PDT
Moon 6:47 AM PDT (3/11) 7:13 PM PDT (3/11)
Length of Visible Light 12h 39m
Length of Day
11h 48m
Waning Crescent, 0% of the Moon is Illuminated
Mar 11
Waning Crescent
Mar 11
New
Mar 19
First Quarter
Mar 27
Full
Apr 2
Last Quarter

Hourly Weather History & Observations

Time (PDT) Temp. Windchill Dew Point Humidity Pressure Visibility Wind Dir Wind Speed Gust Speed Precip Events Conditions
12:15 AM 32.0 °F 26.4 °F 28.4 °F 87% 30.29 in 10.0 mi SE 5.8 mph - N/A   Clear
12:35 AM 32.0 °F 26.4 °F 26.6 °F 80% 30.28 in 10.0 mi SE 5.8 mph - N/A   Clear
12:55 AM 32.0 °F 26.4 °F 26.6 °F 80% 30.28 in 10.0 mi SE 5.8 mph - N/A   Clear
1:15 AM 30.2 °F 25.4 °F 26.6 °F 86% 30.28 in 10.0 mi SE 4.6 mph - N/A   Clear
1:55 AM 28.4 °F 24.6 °F 26.6 °F 93% 30.28 in 10.0 mi ESE 3.5 mph - N/A   Clear
2:15 AM 30.2 °F - 26.6 °F 86% 30.28 in 10.0 mi Calm Calm - N/A   Clear
2:35 AM 28.4 °F - 26.6 °F 93% 30.27 in 10.0 mi Calm Calm - N/A   Clear
2:55 AM 28.4 °F 24.6 °F 26.6 °F 93% 30.26 in 10.0 mi ESE 3.5 mph - N/A   Clear
3:15 AM 28.4 °F - 26.6 °F 93% 30.26 in 10.0 mi Calm Calm - N/A   Clear
3:35 AM 26.6 °F - 24.8 °F 93% 30.25 in 10.0 mi Calm Calm - N/A   Clear
3:55 AM 28.4 °F - 24.8 °F 86% 30.24 in 10.0 mi Calm Calm - N/A   Clear
4:15 AM 28.4 °F - 24.8 °F 86% 30.25 in 10.0 mi Calm Calm - N/A   Clear
4:35 AM 28.4 °F - 24.8 °F 86% 30.25 in 10.0 mi Calm Calm - N/A   Clear
4:55 AM 26.6 °F - 24.8 °F 93% 30.24 in 10.0 mi Calm Calm - N/A   Clear
5:15 AM 26.6 °F 22.6 °F 24.8 °F 93% 30.24 in 10.0 mi ESE 3.5 mph - N/A   Clear
5:55 AM 26.6 °F - 24.8 °F 93% 30.24 in 10.0 mi Calm Calm - N/A   Clear
6:15 AM 28.4 °F - 24.8 °F 86% 30.24 in 10.0 mi Calm Calm - N/A   Clear
6:35 AM 26.6 °F - 23.0 °F 86% 30.24 in 10.0 mi Calm Calm - N/A   Clear
6:55 AM 28.4 °F - 24.8 °F 86% 30.24 in 10.0 mi Calm Calm - N/A   Clear
7:15 AM 28.4 °F 24.6 °F 23.0 °F 80% 30.24 in 10.0 mi East 3.5 mph - N/A   Clear
7:35 AM 28.4 °F 24.6 °F 24.8 °F 86% 30.24 in 10.0 mi East 3.5 mph - N/A   Clear
7:55 AM 32.0 °F - 24.8 °F 75% 30.24 in 10.0 mi Calm Calm - N/A   Clear
8:15 AM 35.6 °F - 26.6 °F 70% 30.25 in 10.0 mi Calm Calm - N/A   Clear
8:35 AM 39.2 °F 37.0 °F 28.4 °F 65% 30.25 in 10.0 mi ESE 3.5 mph - N/A   Clear
8:55 AM 42.8 °F - 32.0 °F 66% 30.26 in 10.0 mi Calm Calm - N/A   Clear
9:15 AM 48.2 °F - 32.0 °F 54% 30.26 in 10.0 mi ESE 5.8 mph - N/A   Clear
9:35 AM 53.6 °F - 26.6 °F 35% 30.26 in 10.0 mi East 8.1 mph - N/A   Clear
9:55 AM 57.2 °F - 23.0 °F 27% 30.26 in 10.0 mi East 9.2 mph - N/A   Clear
10:15 AM 59.0 °F - 23.0 °F 25% 30.26 in 10.0 mi ESE 10.4 mph - N/A   Clear
10:35 AM 59.0 °F - 21.2 °F 23% 30.26 in 10.0 mi East 9.2 mph - N/A   Clear
10:55 AM 62.6 °F - 19.4 °F 19% 30.25 in 10.0 mi SE 11.5 mph - N/A   Clear
11:15 AM 62.6 °F - 15.8 °F 16% 30.25 in 10.0 mi ESE 10.4 mph - N/A   Clear
11:35 AM 62.6 °F - 17.6 °F 18% 30.25 in 9.0 mi ESE 13.8 mph 17.3 mph N/A   Clear
11:55 AM 64.4 °F - 15.8 °F 15% 30.24 in 8.0 mi ESE 11.5 mph 18.4 mph N/A   Clear
12:15 PM 64.4 °F - 17.6 °F 16% 30.24 in 10.0 mi SE 11.5 mph 17.3 mph N/A   Clear
12:35 PM 64.4 °F - 15.8 °F 15% 30.23 in 10.0 mi ESE 11.5 mph - N/A   Clear
12:55 PM 64.4 °F - 15.8 °F 15% 30.23 in 10.0 mi ESE 10.4 mph 18.4 mph N/A   Clear
1:15 PM 64.4 °F - 17.6 °F 16% 30.22 in 10.0 mi ESE 12.7 mph 18.4 mph N/A   Clear
1:55 PM 66.2 °F - 14.0 °F 13% 30.20 in 10.0 mi SE 10.4 mph - N/A   Clear
2:15 PM 66.2 °F - 14.0 °F 13% 30.19 in 10.0 mi ESE 9.2 mph - N/A   Clear
2:35 PM 66.2 °F - 14.0 °F 13% 30.18 in 10.0 mi ESE 9.2 mph - N/A   Clear
2:55 PM 66.2 °F - 14.0 °F 13% 30.18 in 10.0 mi ESE 8.1 mph - N/A   Clear
3:15 PM 66.2 °F - 10.4 °F 11% 30.18 in 10.0 mi NNW 3.5 mph - N/A   Clear
3:35 PM 66.2 °F - 37.4 °F 35% 30.17 in 10.0 mi NW 12.7 mph 16.1 mph N/A   Clear